Location: Unspecified
(0.0000°N, 0.0000°E)
Time: 06:40:30
(UTC+00:00)

Vanguard 1 - Pass Details

Date: 27 November 2019
Orbit: 652 x 3832 km, 34.3° (Epoch: 10 December)

Event Time Altitude Azimuth Distance (km) Brightness Sun altitude
Rises 22:27:11 0° 214° (SW) 5,305 14.2 -61.1°
Reaches altitude 10° 22:34:04 10° 187° (S) 5,072 13.9 -62.2°
Maximum altitude 22:39:57 13° 164° (SSE) 5,402 13.9 -63.1°
Drops below altitude 10° 22:46:57 10° 141° (SE) 6,194 14.1 -64.1°
Sets 22:58:13 0° 117° (ESE) 7,802 14.7 -65.6°
